Вернуться в каталог

COSMOS 1477

АктивенВоенныеLEO
NORAD 14175·PAYLOAD·🇷🇺 Russia

Запущен Jul 6, 1983 с Plesetsk Cosmodrome

Loading…

Ближайшие Пролёты (ближайшие 24 часа)

TLE

СвежийSource: Space-Track

Эпоха: Sep 14, 2026, 19:44 UTC

1 14175U 83069E   26257.82277637 -.00000005  00000-0  74182-4 0  9990
2 14175  74.0262 195.5668 0001919  14.1459  12.6140 12.50458266971791

Отслеживайте COSMOS 1477 в реальном времени с AllMySat

Download on the App Store